• In Uzbekistan
  • List of Countries
  • For 7 days
  • Water Temperature
  • Satellite Maps
  • Weather Map
  • Weather Widgets
  • user-avatar
    Login

    Hourly Weather Innsbruck

    Today, 29 June, Thursday

    Time Temperature Precipitation Wind Pressure Humidity
    00:00 +8°C° 0.9 mm 1 mps 587 mmHg 96%
    01:00 +7°C° 0.9 mm 1 mps 587 mmHg 97%
    02:00 +7°C° 1.1 mm 1 mps 586 mmHg 97%
    03:00 +7°C° 1.1 mm 1 mps 586 mmHg 97%
    04:00 +6°C° 1.1 mm 1 mps 586 mmHg 97%
    05:00 +7°C° 1.1 mm 1 mps 586 mmHg 96%
    06:00 +7°C° 1.1 mm 1 mps 587 mmHg 94%
    07:00 +8°C° 1.1 mm 1 mps 587 mmHg 93%
    08:00 +8°C° 0.9 mm 1 mps 588 mmHg 90%
    09:00 +9°C° 0.9 mm 1 mps 588 mmHg 87%
    10:00 +9°C° 0.9 mm 1 mps 589 mmHg 84%
    11:00 +10°C° 0.7 mm 1 mps 589 mmHg 81%
    12:00 +11°C° 0.7 mm 1 mps 590 mmHg 79%
    13:00 +12°C° 0.7 mm 1 mps 590 mmHg 76%
    14:00 +11°C° 1 mm 1 mps 590 mmHg 78%
    15:00 +11°C° 1 mm 1 mps 590 mmHg 80%
    16:00 +11°C° 1 mm 1 mps 590 mmHg 82%
    17:00 +10°C° 1.8 mm 1 mps 590 mmHg 86%
    18:00 +9°C° 1.8 mm 1 mps 589 mmHg 90%
    19:00 +8°C° 1.8 mm 1 mps 589 mmHg 94%
    20:00 +7°C° 1.3 mm 1 mps 589 mmHg 95%
    21:00 +6°C° 1.3 mm 1 mps 589 mmHg 96%
    22:00 +5°C° 1.3 mm 1 mps 590 mmHg 98%
    23:00 +5°C° 1 mm 1 mps 590 mmHg 97%

    Tomorrow, 30 June, Friday

    Time Temperature Precipitation Wind Pressure Humidity
    00:00 +5°C° 1 mm 1 mps 590 mmHg 97%
    01:00 +4°C° 1 mm 1 mps 590 mmHg 97%
    02:00 +4°C° 1.2 mm 1 mps 590 mmHg 97%
    03:00 +4°C° 1.2 mm 1 mps 590 mmHg 97%
    04:00 +4°C° 1.2 mm 1 mps 590 mmHg 96%
    05:00 +4°C° 0.2 mm 1 mps 590 mmHg 95%
    06:00 +5°C° 0.2 mm 1 mps 591 mmHg 93%
    07:00 +6°C° 0.2 mm 1 mps 591 mmHg 92%
    08:00 +7°C° 0.3 mm 1 mps 592 mmHg 86%
    09:00 +8°C° 0.3 mm 1 mps 593 mmHg 79%
    10:00 +9°C° 0.3 mm 2 mps 593 mmHg 73%
    11:00 +9°C° 0.9 mm 2 mps 594 mmHg 73%
    12:00 +9°C° 0.9 mm 2 mps 594 mmHg 73%
    13:00 +9°C° 0.9 mm 2 mps 594 mmHg 73%
    14:00 +9°C° 1.3 mm 2 mps 594 mmHg 74%
    15:00 +9°C° 1.3 mm 2 mps 593 mmHg 76%
    16:00 +8°C° 1.3 mm 2 mps 593 mmHg 77%
    17:00 +9°C° 0.9 mm 1 mps 593 mmHg 80%
    18:00 +8°C° 0.9 mm 1 mps 593 mmHg 83%
    19:00 +7°C° 0.9 mm 1 mps 593 mmHg 87%
    20:00 +6°C° 0.7 mm 1 mps 593 mmHg 90%
    21:00 +5°C° 0.7 mm 1 mps 592 mmHg 93%
    22:00 +4°C° 0.7 mm 1 mps 592 mmHg 96%
    23:00 +3°C° 0.4 mm 1 mps 592 mmHg 96%

    Day after tomorrow, 1 July, Saturday

    Time Temperature Precipitation Wind Pressure Humidity
    00:00 +3°C° 0.4 mm 1 mps 592 mmHg 96%
    01:00 +1°C° 0.4 mm 0 mps 591 mmHg 96%
    02:00 +1°C° 0.2 mm 0 mps 592 mmHg 96%
    03:00 +1°C° 0.2 mm 0 mps 592 mmHg 96%
    04:00 +1°C° 0.2 mm 0 mps 592 mmHg 95%
    05:00 +3°C° 0 mm 0 mps 593 mmHg 91%
    06:00 +4°C° 0 mm 0 mps 593 mmHg 88%
    07:00 +6°C° 0 mm 0 mps 594 mmHg 84%
    08:00 +8°C° 0.1 mm 1 mps 595 mmHg 77%
    09:00 +10°C° 0.1 mm 1 mps 595 mmHg 70%
    10:00 +11°C° 0.1 mm 1 mps 596 mmHg 63%
    11:00 +11°C° 0.4 mm 1 mps 596 mmHg 65%
    12:00 +12°C° 0.4 mm 1 mps 596 mmHg 67%
    13:00 +12°C° 0.4 mm 1 mps 596 mmHg 69%
    14:00 +11°C° 0.5 mm 1 mps 596 mmHg 72%
    15:00 +11°C° 0.5 mm 1 mps 596 mmHg 74%
    16:00 +10°C° 0.5 mm 1 mps 596 mmHg 77%
    17:00 +9°C° 1.1 mm 1 mps 595 mmHg 82%
    18:00 +8°C° 1.1 mm 1 mps 595 mmHg 87%
    19:00 +7°C° 1.1 mm 1 mps 595 mmHg 92%
    20:00 +6°C° 0.7 mm 1 mps 595 mmHg 94%
    21:00 +5°C° 0.7 mm 1 mps 595 mmHg 96%
    22:00 +4°C° 0.7 mm 1 mps 594 mmHg 97%
    23:00 +4°C° 0.1 mm 1 mps 594 mmHg 97%

    2 July, Sunday

    Time Temperature Precipitation Wind Pressure Humidity
    00:00 +4°C° 0.1 mm 1 mps 594 mmHg 97%
    01:00 +4°C° 0.1 mm 1 mps 594 mmHg 97%
    02:00 +4°C° 0.4 mm 1 mps 594 mmHg 97%
    03:00 +4°C° 0.4 mm 1 mps 595 mmHg 97%
    04:00 +4°C° 0.4 mm 1 mps 595 mmHg 97%
    05:00 +4°C° 0.8 mm 1 mps 595 mmHg 96%
    06:00 +5°C° 0.8 mm 1 mps 596 mmHg 95%
    07:00 +5°C° 0.8 mm 1 mps 596 mmHg 94%
    08:00 +6°C° 0.9 mm 1 mps 597 mmHg 91%
    09:00 +6°C° 0.9 mm 2 mps 597 mmHg 88%
    10:00 +6°C° 0.9 mm 2 mps 598 mmHg 85%
    11:00 +7°C° 0.6 mm 2 mps 598 mmHg 84%
    12:00 +7°C° 0.6 mm 2 mps 598 mmHg 83%
    13:00 +7°C° 0.6 mm 2 mps 599 mmHg 82%
    14:00 +8°C° 0.2 mm 2 mps 599 mmHg 81%
    15:00 +8°C° 0.2 mm 2 mps 599 mmHg 80%
    16:00 +8°C° 0.2 mm 2 mps 599 mmHg 80%
    17:00 +8°C° 0 mm 2 mps 599 mmHg 82%
    18:00 +7°C° 0 mm 2 mps 599 mmHg 84%
    19:00 +8°C° 0 mm 1 mps 599 mmHg 87%
    20:00 +7°C° 0 mm 1 mps 599 mmHg 90%
    21:00 +6°C° 0 mm 1 mps 599 mmHg 92%
    22:00 +5°C° 0 mm 1 mps 599 mmHg 95%
    23:00 +4°C° 0 mm 1 mps 599 mmHg 95%

    3 July, Monday

    Time Temperature Precipitation Wind Pressure Humidity
    00:00 +4°C° 0 mm 1 mps 598 mmHg 95%
    01:00 +4°C° 0 mm 1 mps 598 mmHg 95%
    02:00 +4°C° 0 mm 1 mps 598 mmHg 95%
    03:00 +3°C° 0 mm 1 mps 598 mmHg 94%
    04:00 +3°C° 0 mm 1 mps 598 mmHg 94%
    05:00 +4°C° 0 mm 1 mps 598 mmHg 91%
    06:00 +6°C° 0 mm 1 mps 599 mmHg 88%
    07:00 +7°C° 0 mm 1 mps 600 mmHg 85%
    08:00 +9°C° 0 mm 1 mps 600 mmHg 78%
    09:00 +11°C° 0 mm 1 mps 601 mmHg 72%
    10:00 +13°C° 0 mm 1 mps 602 mmHg 65%
    11:00 +13°C° 0.1 mm 1 mps 602 mmHg 63%
    12:00 +14°C° 0.1 mm 2 mps 602 mmHg 62%
    13:00 +14°C° 0.1 mm 2 mps 602 mmHg 60%
    14:00 +14°C° 0.2 mm 2 mps 602 mmHg 63%
    15:00 +14°C° 0.2 mm 2 mps 601 mmHg 67%
    16:00 +13°C° 0.2 mm 2 mps 601 mmHg 70%
    17:00 +12°C° 0.2 mm 2 mps 601 mmHg 76%
    18:00 +10°C° 0.2 mm 2 mps 601 mmHg 83%
    19:00 +10°C° 0.2 mm 1 mps 600 mmHg 89%
    20:00 +9°C° 0.1 mm 1 mps 600 mmHg 92%
    21:00 +7°C° 0.1 mm 1 mps 600 mmHg 95%
    22:00 +6°C° 0.1 mm 1 mps 599 mmHg 98%
    23:00 +6°C° 0 mm 1 mps 599 mmHg 98%

    4 July, Tuesday

    Time Temperature Precipitation Wind Pressure Humidity
    00:00 +6°C° 0 mm 1 mps 599 mmHg 97%
    01:00 +6°C° 0 mm 1 mps 599 mmHg 97%
    02:00 +5°C° 0 mm 1 mps 599 mmHg 97%
    03:00 +5°C° 0 mm 1 mps 598 mmHg 97%
    04:00 +3°C° 0 mm 0 mps 598 mmHg 97%
    05:00 +5°C° 0 mm 0 mps 599 mmHg 93%
    06:00 +6°C° 0 mm 0 mps 599 mmHg 89%
    07:00 +8°C° 0 mm 0 mps 600 mmHg 86%
    08:00 +10°C° 0 mm 0 mps 601 mmHg 75%
    09:00 +12°C° 0 mm 0 mps 602 mmHg 65%
    10:00 +16°C° 0 mm 1 mps 603 mmHg 55%
    11:00 +16°C° 0 mm 1 mps 603 mmHg 52%
    12:00 +18°C° 0 mm 1 mps 602 mmHg 49%
    13:00 +19°C° 0 mm 1 mps 602 mmHg 46%
    14:00 +17°C° 0.1 mm 2 mps 602 mmHg 50%
    15:00 +17°C° 0.1 mm 2 mps 602 mmHg 53%
    16:00 +16°C° 0.1 mm 2 mps 601 mmHg 57%
    17:00 +15°C° 0.2 mm 2 mps 601 mmHg 66%
    18:00 +14°C° 0.2 mm 1 mps 600 mmHg 74%
    19:00 +12°C° 0.2 mm 1 mps 600 mmHg 82%
    20:00 +10°C° 0.2 mm 1 mps 599 mmHg 87%
    21:00 +6°C° 0.2 mm 0 mps 597 mmHg 92%
    22:00 +3°C° 0.2 mm 0 mps 596 mmHg 97%
    23:00 +3°C° 0.1 mm 0 mps 596 mmHg 97%
    Show more